Temp
-11 -12 -12 -12 -15 -18 -20 -21 -20 -20 -21 -21 -21 -22 -22 -22 -22 -22 -21 -21 -21 -21 -21 -20 -20 -18 -18 -18 -17 -17 -17 -17 -16 -16 -16 -15 -15 -15 -14 -14 -14 -14 -13 -13 -13 -13 -13
-11 -12 -12 -13 -15 -18 -20 -21 -21 -21 -21 -22 -22 -22 -23 -22 -22 -22 -21 -21 -21 -21 -21 -20 -20 -19 -18 -18 -17 -18 -17 -16 -16 -16 -16 -17 -16 -16 -15 -15 -14 -14 -14 -14 -13 -13 -13
-12 -12 -13 -13 -15 -18 -20 -21 -21 -21 -21 -22 -23 -23 -24 -23 -22 -22 -22 -21 -21 -21 -21 -20 -20 -19 -18 -18 -18 -18 -18 -17 -16 -17 -16 -16 -17 -17 -16 -15 -15 -15 -14 -14 -14 -14 -13
-12 -13 -13 -14 -15 -17 -19 -21 -21 -21 -21 -22 -25 -26 -25 -24 -23 -22 -22 -21 -21 -21 -21 -21 -20 -19 -18 -18 -18 -18 -18 -18 -17 -17 -17 -16 -16 -16 -16 -16 -16 -15 -15 -15 -15 -14 -14
-12 -12 -13 -14 -15 -16 -19 -20 -21 -21 -21 -21 -26 -28 -26 -24 -23 -23 -21 -21 -22 -22 -21 -21 -20 -19 -19 -20 -19 -19 -19 -19 -18 -17 -17 -17 -16 -16 -16 -16 -16 -16 -16 -16 -15 -15 -14
-12 -12 -13 -14 -15 -16 -18 -20 -20 -20 -21 -21 -25 -28 -25 -24 -23 -22 -22 -22 -21 -21 -21 -21 -21 -21 -20 -20 -20 -19 -19 -18 -18 -18 -17 -17 -16 -16 -16 -16 -16 -16 -16 -16 -15 -14 -14
-12 -12 -13 -14 -15 -16 -17 -20 -20 -20 -21 -21 -24 -25 -24 -24 -23 -22 -22 -22 -22 -21 -21 -21 -21 -21 -21 -20 -20 -19 -19 -18 -18 -17 -17 -16 -16 -17 -17 -16 -16 -16 -16 -16 -15 -15 -14
-13 -13 -13 -14 -14 -15 -16 -19 -19 -20 -21 -21 -24 -24 -23 -23 -22 -22 -23 -23 -22 -22 -21 -21 -21 -22 -21 -20 -20 -20 -19 -18 -18 -18 -17 -17 -17 -17 -17 -16 -16 -16 -16 -16 -15 -15 -15
-13 -13 -13 -13 -14 -15 -16 -18 -19 -20 -21 -21 -23 -23 -23 -22 -22 -23 -23 -23 -22 -23 -22 -22 -22 -22 -22 -21 -20 -20 -19 -18 -18 -18 -17 -17 -17 -17 -17 -17 -17 -16 -16 -16 -16 -15 -15
-13 -13 -13 -13 -13 -14 -15 -17 -18 -19 -20 -21 -21 -22 -23 -22 -23 -23 -22 -22 -23 -22 -22 -22 -21 -21 -21 -21 -20 -19 -19 -19 -18 -18 -18 -17 -17 -17 -17 -17 -17 -16 -16 -16 -16 -15 -15
-13 -13 -13 -13 -13 -14 -15 -16 -18 -18 -19 -20 -21 -21 -21 -22 -23 -22 -22 -22 -22 -22 -22 -22 -21 -21 -20 -20 -20 -20 -19 -19 -18 -18 -17 -17 -17 -16 -17 -17 -17 -16 -16 -16 -16 -16 -17
-13 -13 -13 -13 -13 -13 -14 -15 -17 -18 -19 -19 -20 -21 -21 -21 -22 -22 -22 -22 -22 -22 -22 -22 -22 -21 -20 -20 -19 -19 -19 -18 -18 -17 -17 -17 -17 -17 -16 -17 -17 -17 -17 -17 -17 -17 -17
-13 -13 -13 -13 -12 -13 -13 -14 -15 -17 -18 -19 -19 -20 -20 -21 -21 -21 -22 -21 -21 -21 -22 -22 -22 -22 -21 -20 -19 -19 -18 -18 -17 -17 -17 -17 -18 -17 -18 -18 -18 -18 -18 -17 -17 -17 -17
-13 -13 -13 -13 -13 -13 -13 -14 -14 -16 -18 -18 -19 -19 -20 -20 -20 -21 -21 -21 -20 -21 -21 -21 -21 -21 -21 -20 -19 -19 -19 -18 -18 -18 -18 -18 -17 -18 -18 -18 -18 -18 -18 -17 -17 -17 -17
-13 -13 -12 -13 -13 -12 -13 -13 -14 -15 -16 -18 -18 -18 -18 -19 -20 -20 -19 -19 -19 -20 -20 -20 -20 -20 -20 -20 -19 -19 -19 -19 -18 -18 -18 -18 -18 -18 -18 -18 -18 -17 -17 -17 -16 -16 -17
-14 -13 -13 -12 -13 -12 -12 -13 -13 -14 -15 -17 -18 -18 -18 -18 -19 -19 -19 -19 -19 -20 -20 -20 -20 -20 -20 -19 -19 -19 -19 -19 -18 -18 -18 -18 -18 -18 -17 -18 -17 -17 -17 -17 -16 -16 -16
-14 -14 -14 -13 -12 -13 -12 -13 -13 -13 -14 -15 -17 -18 -18 -18 -18 -19 -18 -18 -18 -19 -19 -19 -19 -19 -19 -19 -19 -19 -19 -19 -19 -18 -18 -18 -18 -17 -17 -17 -17 -17 -17 -17 -16 -16 -16
-14 -14 -13 -13 -12 -12 -13 -12 -13 -13 -13 -13 -14 -16 -18 -17 -17 -18 -18 -18 -18 -18 -18 -18 -18 -18 -18 -18 -18 -18 -18 -18 -18 -18 -17 -17 -17 -17 -17 -17 -17 -16 -17 -16 -15 -16 -16
-14 -13 -13 -13 -13 -12 -13 -13 -12 -13 -13 -13 -13 -15 -16 -17 -17 -17 -17 -17 -17 -17 -17 -17 -17 -18 -18 -18 -17 -18 -18 -18 -18 -17 -17 -17 -17 -17 -16 -16 -16 -16 -16 -16 -16 -16 -16
-13 -14 -13 -13 -13 -13 -12 -13 -12 -12 -13 -13 -13 -13 -14 -15 -16 -16 -16 -16 -16 -16 -17 -17 -17 -17 -17 -17 -17 -17 -16 -17 -17 -17 -17 -16 -16 -16 -16 -16 -16 -15 -16 -16 -16 -16 -16
-12 -13 -13 -13 -13 -13 -12 -12 -12 -12 -12 -13 -13 -13 -13 -14 -15 -15 -16 -16 -16 -16 -16 -16 -17 -17 -16 -16 -16 -16 -16 -16 -16 -16 -16 -16 -16 -16 -15 -15 -15 -15 -15 -15 -15 -15 -15
-12 -12 -13 -13 -12 -13 -12 -12 -12 -12 -12 -12 -13 -13 -13 -13 -13 -14 -15 -15 -15 -15 -16 -15 -15 -16 -17 -17 -17 -16 -16 -16 -16 -16 -16 -15 -15 -15 -15 -15 -15 -15 -15 -15 -15 -15 -15
-12 -12 -13 -13 -12 -13 -12 -12 -12 -12 -12 -12 -12 -13 -13 -13 -13 -13 -14 -14 -14 -15 -15 -15 -15 -15 -15 -16 -16 -16 -16 -15 -15 -15 -15 -15 -15 -15 -15 -14 -14 -14 -15 -14 -14 -14 -14
-12 -12 -13 -12 -12 -12 -12 -12 -12 -12 -12 -12 -12 -12 -13 -13 -13 -13 -13 -13 -14 -14 -14 -14 -15 -15 -15 -15 -15 -15 -15 -15 -15 -15 -15 -15 -15 -14 -14 -14 -14 -14 -14 -14 -14 -14 -14
-12 -12 -12 -12 -12 -12 -12 -12 -12 -12 -12 -12 -12 -12 -12 -12 -13 -13 -13 -13 -13 -13 -13 -14 -14 -14 -14 -14 -14 -14 -14 -15 -15 -15 -15 -14 -14 -14 -14 -14 -14 -14 -14 -14 -14 -14 -14
-12 -12 -12 -12 -12 -11 -11 -12 -12 -11 -12 -13 -12 -12 -12 -12 -12 -13 -13 -13 -13 -13 -13 -13 -13 -13 -13 -13 -13 -13 -14 -14 -14 -14 -14 -14 -14 -14 -14 -14 -13 -13 -13 -14 -14 -14 -14
-12 -12 -11 -11 -11 -12 -11 -11 -12 -12 -11 -12 -12 -12 -11 -12 -12 -12 -12 -13 -13 -13 -13 -13 -13 -13 -13 -13 -13 -13 -13 -13 -13 -13 -13 -13 -13 -13 -13 -13 -13 -14 -14 -14 -14 -14 -14
-12 -12 -11 -12 -11 -11 -12 -11 -11 -12 -12 -12 -12 -12 -12 -11 -12 -12 -12 -12 -12 -13 -13 -13 -13 -13 -13 -13 -13 -13 -13 -13 -13 -13 -13 -13 -13 -13 -13 -13 -13 -13 -13 -14 -14 -14 -14
-12 -12 -12 -12 -12 -12 -12 -12 -11 -12 -12 -12 -11 -12 -12 -12 -11 -11 -12 -12 -12 -12 -12 -12 -13 -13 -13 -13 -13 -13 -13 -13 -13 -13 -13 -13 -13 -13 -13 -14 -13 -13 -13 -13 -13 -14 -14
Height
5744 5731 5716 5698 5679 5659 5641 5629 5615 5601 5591 5583 5578 5574 5568 5569 5571 5574 5578 5580 5584 5587 5591 5598 5608 5618 5628 5635 5646 5657 5661 5666 5676 5685 5694 5702 5709 5715 5721 5727 5732 5736 5740 5742 5744 5747 5751
5742 5728 5713 5697 5677 5658 5641 5627 5614 5601 5590 5581 5576 5569 5566 5567 5569 5574 5577 5580 5583 5586 5589 5593 5602 5613 5624 5630 5640 5649 5657 5663 5671 5678 5685 5694 5702 5709 5714 5720 5725 5729 5733 5735 5737 5739 5743
5741 5725 5712 5696 5675 5657 5639 5626 5613 5599 5586 5574 5564 5558 5557 5562 5568 5574 5577 5579 5582 5584 5587 5592 5599 5608 5618 5629 5636 5643 5650 5659 5666 5674 5682 5688 5694 5702 5708 5713 5718 5722 5725 5728 5730 5732 5735
5741 5725 5712 5695 5676 5658 5640 5626 5612 5598 5582 5565 5548 5540 5545 5556 5564 5573 5578 5580 5581 5584 5587 5592 5598 5607 5617 5625 5632 5639 5646 5655 5661 5670 5676 5683 5689 5695 5700 5705 5710 5714 5718 5720 5723 5725 5727
5741 5727 5712 5695 5677 5660 5643 5629 5614 5600 5582 5556 5534 5526 5536 5550 5564 5573 5579 5582 5584 5587 5590 5593 5600 5607 5613 5621 5627 5634 5642 5650 5658 5666 5672 5677 5683 5689 5695 5701 5706 5709 5712 5714 5716 5718 5720
5743 5729 5713 5697 5681 5663 5647 5633 5618 5603 5587 5557 5528 5524 5536 5554 5566 5576 5583 5587 5590 5591 5594 5597 5603 5610 5616 5622 5628 5635 5642 5649 5657 5663 5669 5674 5679 5684 5690 5695 5700 5703 5706 5709 5710 5713 5714
5746 5732 5716 5700 5687 5669 5652 5638 5624 5611 5597 5574 5543 5543 5555 5565 5573 5583 5589 5593 5600 5601 5601 5603 5607 5613 5618 5623 5628 5635 5642 5648 5655 5661 5668 5672 5677 5681 5686 5691 5695 5698 5701 5703 5704 5706 5708
5749 5736 5721 5705 5691 5675 5658 5645 5633 5621 5609 5594 5576 5575 5577 5577 5583 5590 5595 5599 5604 5608 5609 5610 5613 5617 5621 5625 5630 5635 5642 5650 5655 5661 5666 5672 5676 5681 5685 5689 5692 5694 5696 5697 5697 5698 5699
5751 5739 5726 5712 5698 5683 5667 5653 5642 5633 5623 5613 5603 5596 5596 5595 5594 5599 5604 5608 5610 5611 5615 5617 5619 5623 5626 5630 5634 5639 5644 5650 5656 5663 5667 5672 5677 5680 5684 5686 5688 5690 5690 5690 5691 5691 5691
5755 5744 5732 5719 5706 5692 5677 5664 5653 5645 5636 5627 5621 5612 5608 5608 5609 5609 5613 5614 5615 5618 5621 5624 5625 5628 5631 5633 5638 5641 5646 5653 5658 5663 5668 5672 5676 5678 5681 5682 5684 5684 5684 5685 5685 5685 5684
5760 5749 5738 5726 5714 5700 5688 5674 5663 5656 5647 5640 5632 5627 5621 5616 5617 5618 5621 5621 5621 5620 5623 5627 5628 5631 5634 5638 5642 5645 5649 5655 5660 5664 5670 5673 5674 5677 5678 5678 5678 5679 5678 5678 5678 5678 5677
5765 5755 5744 5733 5721 5709 5698 5686 5675 5667 5659 5652 5646 5638 5633 5628 5627 5626 5624 5624 5624 5626 5623 5626 5630 5633 5637 5641 5646 5650 5653 5658 5662 5666 5669 5672 5674 5675 5674 5674 5674 5674 5675 5675 5674 5674 5672
5770 5760 5750 5739 5729 5719 5708 5697 5684 5677 5670 5664 5658 5652 5645 5639 5638 5635 5632 5632 5632 5631 5631 5633 5633 5635 5639 5644 5649 5653 5657 5661 5664 5667 5668 5670 5670 5670 5670 5671 5671 5672 5672 5671 5671 5669 5668
5775 5765 5754 5745 5736 5726 5717 5706 5695 5686 5679 5674 5668 5665 5659 5652 5646 5643 5642 5641 5640 5637 5637 5638 5640 5641 5644 5648 5652 5656 5659 5662 5663 5666 5668 5669 5671 5670 5669 5670 5670 5669 5669 5669 5668 5667 5665
5778 5769 5759 5750 5741 5733 5725 5716 5705 5696 5689 5682 5677 5674 5670 5665 5658 5654 5652 5653 5648 5646 5647 5647 5648 5650 5653 5657 5660 5661 5663 5664 5666 5667 5670 5669 5670 5669 5669 5668 5669 5668 5667 5667 5666 5664 5662
5781 5773 5764 5756 5747 5739 5732 5724 5715 5706 5698 5690 5685 5683 5679 5676 5669 5663 5665 5661 5657 5656 5655 5656 5657 5658 5660 5662 5663 5665 5666 5666 5668 5669 5669 5670 5671 5669 5668 5668 5668 5666 5666 5665 5663 5662 5660
5783 5776 5768 5760 5752 5744 5738 5730 5723 5715 5707 5700 5693 5691 5686 5682 5680 5671 5676 5671 5666 5663 5664 5664 5664 5664 5666 5667 5667 5668 5668 5669 5670 5670 5671 5671 5670 5670 5669 5668 5667 5667 5665 5664 5663 5663 5663
5785 5779 5771 5764 5757 5749 5742 5736 5731 5723 5717 5709 5703 5697 5693 5690 5687 5685 5684 5678 5675 5673 5670 5670 5670 5670 5671 5671 5671 5672 5672 5672 5672 5672 5672 5672 5671 5671 5671 5669 5668 5666 5665 5664 5665 5666 5664
5787 5780 5773 5767 5761 5754 5746 5741 5736 5730 5725 5718 5711 5705 5700 5697 5694 5693 5692 5690 5687 5682 5679 5678 5677 5676 5676 5677 5678 5677 5677 5676 5675 5676 5676 5675 5674 5673 5672 5671 5669 5669 5668 5667 5667 5667 5666
5787 5782 5776 5769 5763 5757 5751 5744 5740 5735 5730 5727 5720 5713 5708 5704 5700 5698 5697 5696 5694 5692 5690 5687 5685 5684 5683 5683 5682 5682 5682 5682 5681 5680 5679 5678 5677 5676 5675 5673 5673 5672 5672 5671 5669 5668 5666
5787 5783 5777 5771 5765 5759 5753 5747 5743 5739 5734 5731 5728 5721 5716 5711 5707 5704 5701 5700 5699 5698 5697 5695 5694 5691 5689 5689 5688 5688 5687 5686 5686 5685 5684 5683 5682 5681 5680 5679 5678 5676 5674 5672 5671 5669 5667
5784 5781 5776 5771 5766 5760 5755 5750 5744 5740 5737 5733 5731 5728 5721 5717 5713 5709 5706 5703 5702 5702 5701 5700 5699 5697 5696 5694 5693 5692 5691 5690 5689 5688 5686 5685 5684 5683 5683 5682 5681 5679 5677 5675 5673 5670 5668
5782 5778 5774 5770 5766 5761 5755 5751 5747 5742 5738 5736 5732 5729 5726 5721 5717 5714 5712 5709 5705 5704 5703 5702 5700 5700 5699 5697 5696 5695 5693 5692 5691 5690 5689 5687 5686 5684 5683 5682 5681 5680 5677 5675 5673 5670 5668
5777 5775 5770 5766 5764 5760 5755 5751 5747 5743 5739 5735 5733 5730 5727 5725 5721 5718 5713 5711 5709 5706 5704 5703 5702 5700 5699 5698 5697 5696 5695 5694 5692 5691 5690 5688 5686 5684 5682 5679 5679 5676 5674 5672 5670 5667 5664
5772 5770 5767 5763 5760 5758 5754 5750 5747 5744 5740 5736 5732 5730 5727 5724 5722 5720 5717 5713 5711 5709 5707 5703 5702 5702 5700 5698 5696 5695 5695 5693 5691 5690 5688 5687 5685 5683 5681 5678 5676 5673 5670 5668 5664 5662 5660
5765 5763 5762 5759 5756 5754 5751 5747 5744 5742 5739 5734 5732 5729 5727 5725 5722 5719 5716 5714 5712 5709 5708 5706 5702 5700 5698 5697 5696 5693 5691 5690 5689 5688 5685 5684 5682 5681 5678 5676 5674 5672 5668 5665 5661 5659 5654
5756 5755 5754 5753 5751 5749 5747 5743 5740 5738 5736 5733 5730 5727 5724 5722 5721 5718 5715 5713 5710 5708 5707 5705 5703 5700 5697 5695 5693 5692 5690 5687 5685 5684 5683 5681 5679 5676 5674 5672 5671 5668 5664 5661 5658 5657 5649
5746 5747 5746 5745 5743 5741 5741 5739 5736 5733 5732 5730 5728 5725 5722 5720 5718 5716 5714 5711 5708 5706 5703 5702 5701 5698 5696 5693 5691 5688 5687 5686 5684 5680 5677 5676 5675 5672 5669 5666 5664 5661 5658 5656 5652 5647 5644
5737 5737 5738 5737 5736 5733 5732 5733 5731 5728 5726 5724 5723 5722 5718 5716 5715 5713 5712 5711 5708 5705 5702 5699 5697 5696 5694 5691 5688 5685 5683 5681 5679 5677 5674 5672 5668 5667 5664 5660 5656 5653 5649 5645 5642 5638 5635
Wind_Speed
68 59 66 73 80 75 60 57 60 58 47 42 16 8 10 1 4 5 5 9 9 7 15 28 36 37 40 39 46 52 34 38 55 52 49 48 47 47 45 43 42 42 40 39 39 39 37
71 61 67 75 80 75 60 55 59 57 49 37 30 16 11 10 12 7 5 6 8 7 12 23 33 36 39 37 39 41 50 45 44 47 49 47 46 45 44 43 43 41 41 40 39 40 39
73 65 67 75 80 76 64 54 57 60 54 47 37 17 9 7 8 10 3 3 4 9 7 19 28 37 37 34 32 33 36 40 41 41 41 47 47 46 44 42 42 41 40 40 40 40 40
73 71 68 74 79 78 66 55 58 61 58 58 45 18 11 12 10 12 8 7 2 2 5 15 26 30 30 32 29 28 30 32 34 32 35 36 39 46 47 47 43 40 38 39 39 40 39
71 74 68 74 79 79 67 57 59 59 62 69 52 13 17 25 21 17 11 9 4 12 12 11 21 22 29 24 20 25 24 29 28 27 25 26 29 33 36 39 40 39 37 36 38 38 38
68 75 72 72 78 79 69 60 62 58 63 74 50 21 33 30 28 19 18 14 22 34 17 31 29 26 24 24 22 28 27 24 28 32 24 23 26 28 31 33 33 33 33 33 33 33 33
65 72 76 71 76 78 70 61 61 57 63 73 46 40 41 33 30 21 18 15 12 16 22 21 29 31 27 22 22 27 23 23 24 27 24 21 23 24 25 26 26 26 26 26 27 28 28
64 68 74 72 74 77 71 61 58 56 59 67 47 43 40 36 29 25 20 21 22 15 19 23 26 24 20 21 24 27 27 21 22 23 22 21 20 21 21 20 21 23 24 24 26 28 30
64 64 70 74 71 75 73 62 56 55 54 57 38 34 33 30 27 24 21 19 19 23 19 21 19 21 18 17 22 23 23 24 21 18 16 16 17 18 18 18 19 21 22 25 27 30 32
62 64 65 71 69 72 73 62 56 50 52 50 49 35 26 24 25 24 20 15 15 13 13 10 11 10 13 13 20 22 21 21 19 15 14 14 13 14 16 18 19 21 22 25 28 29 32
61 63 62 67 70 68 71 64 52 53 48 47 44 41 38 26 12 10 8 8 7 6 5 3 3 7 12 13 18 21 21 21 18 16 13 11 11 12 14 17 19 20 23 24 26 29 16
59 60 62 63 67 63 67 66 52 49 49 47 42 39 36 36 31 27 23 20 14 13 16 18 20 14 13 18 18 20 19 18 14 11 11 12 14 15 16 17 18 18 18 16 12 12 14
57 57 59 59 63 63 61 62 56 47 48 46 45 40 38 37 33 29 27 24 22 23 25 21 19 22 23 21 23 20 15 13 12 13 12 8 7 10 11 8 6 5 7 9 11 10 13
53 56 56 57 57 62 56 57 56 48 42 44 44 44 39 38 37 36 35 31 29 29 30 29 30 30 29 23 21 18 14 11 10 7 6 6 7 4 7 5 4 5 7 9 8 11 9
48 53 54 54 53 56 56 52 53 49 43 40 42 43 40 40 38 38 38 34 38 37 35 35 33 31 29 25 21 18 14 11 9 7 9 9 6 4 2 2 4 4 6 5 4 5 6
45 46 51 50 50 50 54 47 49 47 43 36 38 39 38 34 34 34 29 30 33 32 31 29 28 28 26 23 21 19 18 17 15 13 10 6 4 1 3 5 4 1 1 3 2 1 4
42 45 46 46 46 45 48 49 43 44 44 40 35 34 37 36 33 32 28 33 35 35 32 30 29 28 27 24 22 19 17 15 13 10 8 5 2 1 4 7 9 8 8 6 6 8 8
46 42 44 42 41 42 42 46 38 39 40 43 39 33 33 34 35 32 31 33 34 34 35 33 33 30 26 23 22 20 18 16 14 12 11 11 12 14 13 12 11 10 11 12 13 11 9
40 39 43 39 39 37 38 40 43 32 35 36 40 35 32 30 31 30 30 30 30 32 31 31 30 29 29 29 29 30 26 21 20 20 19 18 17 14 13 14 13 14 17 16 11 8 7
42 43 43 42 38 35 34 34 37 36 29 31 33 34 32 27 27 26 25 25 26 25 26 26 27 27 27 26 26 25 27 27 26 23 24 22 23 19 17 15 15 15 13 10 8 7 7
45 42 41 38 38 32 29 29 30 34 30 25 27 29 30 26 20 20 20 20 20 20 21 22 21 21 22 21 21 22 23 25 25 23 23 21 19 20 18 15 11 7 9 10 10 10 10
41 38 37 37 34 31 29 25 25 27 30 24 21 23 23 25 22 14 12 14 14 14 14 16 16 16 16 15 15 17 17 18 18 18 18 17 17 15 15 13 11 11 12 12 10 11 13
40 36 37 36 33 34 32 24 22 21 24 28 22 16 17 18 19 18 11 7 7 8 7 8 9 10 11 13 12 13 12 12 12 12 11 11 9 8 8 8 9 9 13 12 13 15 18
38 38 33 32 32 33 36 30 19 18 17 20 22 18 11 12 13 14 14 10 7 6 6 6 7 8 9 11 14 15 18 18 16 14 12 10 7 6 7 8 9 11 13 15 17 20 23
42 39 33 30 32 31 32 31 26 18 18 16 17 19 18 8 7 8 9 9 9 8 8 7 8 9 12 13 13 17 19 19 19 20 20 17 14 14 14 14 16 18 22 23 25 29 31
41 37 31 30 31 32 29 31 26 21 17 14 15 15 17 17 12 7 6 7 7 6 7 7 7 7 8 10 11 11 13 15 15 14 15 14 13 14 18 19 20 22 26 30 33 34 37
42 37 33 31 31 31 29 27 30 24 21 17 14 13 13 16 17 14 9 9 9 8 8 8 8 7 6 7 9 11 11 11 12 14 17 17 19 19 21 23 22 21 23 24 25 27 28
42 38 33 34 31 29 29 29 29 28 23 19 19 15 14 15 16 16 15 11 11 12 13 14 14 14 11 11 10 12 12 14 14 14 14 17 17 19 22 25 27 27 28 29 30 31 30
41 38 34 33 34 27 26 26 30 31 29 21 21 20 19 16 16 17 17 16 13 13 13 13 14 17 18 17 17 17 17 18 19 18 23 20 23 21 22 24 27 29 32 36 36 36 34
Wind_Direction
2 357 357 357 358 1 357 356 360 2 11 26 352 286 246 346 199 196 240 232 214 238 211 199 208 206 209 213 217 220 206 220 221 222 224 227 230 232 234 236 239 242 242 243 245 247 247
5 359 358 0 -0 3 1 360 359 2 1 6 18 320 292 267 218 195 208 219 223 217 214 196 194 199 192 205 212 216 219 230 235 229 222 223 226 229 232 235 237 240 243 245 246 248 249
6 2 1 2 2 6 4 4 1 1 358 356 352 328 235 216 199 176 135 193 186 213 221 186 187 192 196 200 208 209 218 225 231 236 236 232 222 225 227 233 236 238 242 245 246 248 250
8 5 4 3 5 7 7 6 5 3 358 352 350 333 201 172 166 169 126 120 207 248 167 180 183 183 190 194 193 195 205 218 225 230 234 233 234 233 226 228 230 234 240 246 248 251 254
10 7 6 5 7 7 10 10 9 9 1 355 359 8 159 149 151 131 127 104 164 161 120 148 171 171 164 155 182 185 197 206 216 211 216 221 221 226 234 237 238 238 239 245 251 255 260
12 9 10 7 8 8 13 15 12 15 10 5 14 75 138 124 128 130 138 136 112 123 100 111 119 131 135 161 183 182 184 192 210 212 216 212 215 218 222 227 230 234 241 247 252 257 264
12 10 11 9 9 11 15 19 17 21 20 21 39 101 111 108 119 126 134 123 116 109 118 116 116 133 141 145 152 190 184 187 196 204 211 215 210 208 213 222 231 237 242 248 258 265 267
11 12 11 11 10 12 17 22 23 26 29 32 75 90 88 90 101 130 116 100 96 98 106 108 102 100 125 132 145 161 179 183 186 196 202 208 212 210 213 223 232 239 246 256 265 272 273
10 13 12 12 11 14 17 23 28 31 34 40 64 79 80 81 96 118 116 99 92 89 84 80 81 86 92 127 146 152 160 174 178 185 190 200 207 214 222 228 235 245 256 264 270 275 278
9 12 13 12 14 14 17 24 29 32 36 41 48 67 81 87 84 112 111 102 83 74 82 77 76 79 90 108 143 145 143 157 167 173 181 193 201 213 225 235 244 254 263 268 273 277 280
6 9 15 14 16 15 16 21 30 35 37 40 48 54 69 82 87 84 96 107 89 348 6 15 174 127 119 121 131 142 144 148 154 158 168 187 206 222 234 242 252 265 270 276 281 284 282
6 7 13 16 15 16 18 19 29 37 42 44 45 55 62 70 75 82 87 90 87 82 85 109 116 119 132 141 137 140 139 146 152 158 173 196 213 229 244 258 265 272 278 281 274 270 279
8 7 9 18 15 17 19 20 25 32 43 50 51 51 59 68 69 74 80 84 87 93 94 95 100 115 128 135 143 144 138 142 161 176 190 211 243 265 268 264 253 225 236 278 282 282 281
9 7 7 15 19 17 18 21 22 29 39 48 51 55 59 62 68 74 75 80 87 88 88 91 98 102 109 115 136 151 165 164 155 163 198 225 233 160 146 163 210 252 276 273 260 267 273
8 10 8 10 19 17 19 20 22 28 31 48 51 51 57 66 70 71 72 77 79 84 88 91 93 94 96 102 109 109 117 130 148 161 160 138 127 110 206 259 289 255 265 271 256 271 294
4 10 9 7 14 19 19 19 22 26 32 40 53 49 49 53 66 70 64 68 78 82 87 89 89 93 95 97 103 110 109 110 117 122 120 119 145 142 251 257 251 277 4 346 308 212 147
2 5 8 9 9 16 18 20 22 23 31 35 47 50 49 48 51 64 64 75 84 87 87 89 92 94 97 100 106 108 107 105 103 102 103 104 101 107 70 75 76 73 49 44 89 115 115
358 360 4 7 8 11 18 18 20 24 26 33 40 49 52 51 56 61 71 81 83 86 90 92 89 86 82 81 82 84 85 88 90 91 94 84 73 75 80 72 65 61 62 88 103 101 87
351 355 355 360 7 5 11 18 18 24 25 32 36 42 54 62 61 65 65 69 75 79 82 83 85 85 87 90 88 84 81 87 92 89 85 80 80 75 67 65 62 82 84 90 91 80 59
345 347 347 356 359 3 7 11 19 19 25 26 37 39 46 64 71 69 68 66 68 66 70 77 81 82 86 87 85 82 80 81 85 82 74 75 77 70 67 70 90 86 69 57 48 41 17
337 343 341 345 354 0 1 6 12 17 19 27 29 42 43 50 70 75 74 71 67 64 61 61 68 74 74 73 70 68 68 70 70 69 66 63 67 58 60 70 94 60 40 54 50 38 26
329 337 341 340 348 351 356 358 4 12 15 22 25 30 42 45 53 64 80 77 73 68 58 52 51 51 54 60 63 58 53 52 52 53 54 52 47 46 44 46 39 31 19 11 15 10 359
323 327 336 339 343 344 352 347 358 359 11 9 20 23 27 41 48 56 50 54 63 62 48 42 37 26 21 29 27 33 40 37 34 28 27 27 32 24 14 3 1 348 348 342 334 328 325
314 320 324 329 335 338 340 352 336 350 356 6 5 19 15 20 34 42 50 51 36 18 11 358 350 352 347 347 347 348 353 352 350 350 346 343 333 312 298 283 300 301 301 302 303 304 309
306 311 315 321 325 331 330 338 345 332 336 345 355 0 10 3 3 11 21 32 27 29 25 10 345 338 338 329 334 333 335 336 337 334 330 325 315 300 292 276 277 286 290 289 288 294 296
300 302 304 312 318 317 323 323 333 343 324 328 329 345 350 1 355 325 324 332 349 359 354 3 10 6 357 352 357 356 359 353 358 351 347 352 348 325 306 290 280 280 284 283 281 285 289
291 293 293 298 307 307 312 314 318 329 328 305 312 315 323 334 344 351 317 292 290 299 311 308 310 311 321 331 331 332 336 333 338 338 337 339 336 334 333 330 324 318 311 308 306 304 302
285 284 286 288 295 299 299 309 308 313 324 316 301 297 295 303 317 327 331 330 300 288 284 288 293 291 291 294 297 300 307 309 311 310 307 315 315 319 321 320 318 318 316 314 310 307 302
281 276 278 283 288 287 291 299 305 303 307 313 313 294 290 283 288 299 308 314 320 326 320 315 308 300 294 293 293 296 294 293 293 296 299 305 305 312 311 308 309 311 306 301 298 299 297